Theta_e
339 338 338 338 338 338 338 337 338 334 327 322 325 328 329 330 329 329 328 328 328 328 328 327 328 327 327 327 327 328 327 327 326 326 326 326 326 326 326 327 327 328 330 332 333 333 331 330 328 328 328 327 326 327 326 325 324 325 324 325 325 325 325 325 326 326 327 328 328 329 330 329 329 330 330 330 328 326 325 323 324 324 322 325 325
339 337 338 338 338 338 338 337 336 330 324 324 327 328 328 328 328 328 327 327 327 327 327 327 327 326 327 327 327 329 331 330 328 327 328 327 326 326 326 328 329 330 331 333 333 332 331 330 329 328 327 327 326 325 325 324 324 324 323 324 325 325 325 325 326 326 327 327 328 330 327 326 327 328 330 330 328 326 323 322 325 324 323 325 324
338 337 337 338 337 337 338 336 333 326 323 326 328 328 328 327 327 327 326 327 326 326 326 326 326 325 326 326 327 331 332 332 331 329 328 328 328 328 328 330 330 331 333 333 333 332 331 330 329 328 327 326 325 325 324 324 323 323 323 324 325 324 324 325 325 326 326 327 329 329 323 326 328 327 330 330 327 324 323 324 326 325 325 325 324
338 337 337 338 337 337 337 335 330 326 327 328 329 328 328 327 327 327 326 326 326 326 326 325 325 325 325 325 328 332 331 332 332 330 328 329 330 331 331 331 331 332 333 332 332 332 331 330 328 327 327 325 324 324 324 324 323 323 324 324 324 323 324 324 325 326 327 328 329 326 321 326 329 327 329 327 326 325 326 327 326 327 326 326 325
338 336 338 338 337 337 335 332 328 328 330 329 329 328 328 327 326 327 326 327 327 326 327 326 325 325 326 325 329 332 332 332 332 330 330 330 331 332 331 331 331 331 331 331 331 331 330 329 328 327 326 324 324 324 324 324 322 323 324 324 324 324 324 323 325 326 327 328 326 322 321 326 328 327 328 328 328 328 328 328 327 327 327 327 326
337 336 338 336 336 336 332 330 330 331 330 329 328 328 328 327 326 326 326 327 328 328 328 327 326 326 326 327 330 331 331 331 331 331 331 331 331 331 331 330 330 329 329 329 328 328 328 327 327 326 324 324 325 324 324 324 322 323 324 323 324 324 322 321 323 324 326 325 321 320 321 325 328 329 329 329 329 328 328 327 327 327 326 326 326
337 337 336 335 335 332 329 330 332 331 330 329 327 326 327 327 326 326 326 327 327 328 328 327 327 327 327 327 329 330 330 330 330 331 331 330 330 329 329 328 328 327 326 326 326 326 326 325 326 324 324 324 324 324 323 324 323 323 324 324 324 324 320 317 319 322 324 323 319 320 320 323 328 329 329 329 328 327 327 326 326 326 325 325 325
337 336 335 333 330 327 328 331 332 330 330 328 326 326 327 327 327 326 326 326 326 326 328 328 328 328 327 326 327 330 330 328 328 329 329 328 328 328 327 326 326 325 325 325 325 325 325 325 325 323 324 324 323 324 323 324 324 323 323 323 323 323 320 315 316 321 322 320 319 320 320 323 327 328 329 328 327 326 326 325 324 325 325 324 324
336 335 331 328 326 326 327 330 330 329 327 326 325 327 328 328 327 326 325 325 325 325 327 328 327 328 327 325 327 329 329 327 326 326 326 325 325 326 325 324 325 324 324 324 325 324 325 324 324 323 323 324 324 324 323 322 323 323 323 322 322 322 321 317 316 319 320 319 320 322 322 324 326 328 328 327 326 324 323 322 323 325 324 324 324
335 333 329 326 326 326 327 329 329 327 326 325 326 326 328 328 327 326 325 325 325 325 326 327 326 327 326 324 327 327 327 325 324 324 324 324 324 325 324 323 324 324 324 324 324 324 324 324 323 324 324 323 324 324 322 320 319 321 322 322 322 322 322 320 318 318 319 319 320 323 323 323 324 325 326 326 325 320 316 318 322 324 324 324 324
333 332 328 326 326 324 326 328 327 325 325 325 326 326 327 327 327 325 325 326 325 325 325 325 325 326 325 325 325 324 323 323 322 323 324 323 323 325 323 323 324 324 324 323 323 323 324 324 324 324 324 324 324 323 319 315 315 318 322 323 323 323 323 323 320 318 319 319 320 324 322 321 321 322 325 325 323 318 317 319 321 321 322 324 324
332 331 328 328 325 321 322 324 323 325 326 326 326 326 327 327 326 325 325 325 325 325 325 325 325 325 325 324 323 321 321 320 321 322 322 323 323 324 323 323 324 323 323 323 322 322 321 321 321 323 324 323 321 318 314 313 315 318 321 323 323 323 323 324 322 318 320 320 320 322 321 320 319 322 325 323 321 319 319 320 320 320 321 323 324
332 331 329 328 323 319 321 321 322 325 325 325 326 326 326 326 325 324 324 325 325 325 324 324 325 325 323 321 322 321 321 319 321 322 321 323 323 322 323 323 322 321 321 320 317 315 315 315 315 317 319 318 314 312 313 315 316 318 320 321 321 321 323 325 321 319 319 320 320 320 321 320 321 323 321 320 320 319 319 318 319 321 321 322 324
332 331 330 328 323 321 323 323 323 323 323 324 326 327 326 325 323 322 322 322 322 323 322 322 322 322 321 320 322 322 321 319 319 320 320 320 322 320 318 318 317 316 314 312 312 312 313 313 312 313 314 314 312 312 314 315 316 317 319 318 319 319 321 323 320 319 319 320 320 320 321 321 322 321 318 318 319 318 318 318 320 322 321 322 323
333 331 331 329 325 323 323 324 323 323 323 324 325 326 324 321 318 318 319 316 315 318 319 320 320 320 320 320 321 321 320 318 316 317 318 318 319 317 314 313 314 314 313 312 313 314 315 315 314 314 314 315 315 314 314 315 316 317 317 318 318 318 319 320 320 319 318 319 320 319 321 320 322 320 317 318 317 318 318 318 321 323 322 322 324
332 332 331 329 326 324 324 325 324 324 324 324 325 325 322 319 317 317 316 312 312 318 319 319 320 320 320 321 321 321 320 318 315 315 317 318 318 317 316 315 315 316 316 315 315 315 316 316 316 316 316 316 316 316 316 316 317 317 317 318 318 318 318 319 319 319 318 319 319 319 320 320 322 321 318 318 317 318 317 318 322 323 322 323 324
333 332 331 329 326 324 324 325 325 326 325 324 324 324 321 319 320 318 315 311 314 320 320 320 320 320 321 321 322 321 321 320 318 316 317 319 319 318 318 318 317 317 316 316 317 318 318 318 318 318 318 318 318 318 319 319 320 320 319 318 318 318 319 320 320 319 318 318 319 319 319 320 321 320 318 318 317 318 317 320 323 323 322 323 324
334 332 330 328 327 326 324 324 325 326 325 324 324 324 322 321 321 320 318 315 317 321 320 321 321 321 322 323 323 323 322 321 319 318 319 320 320 320 320 319 319 319 318 318 318 319 319 319 319 319 319 318 319 319 320 320 320 321 321 320 319 317 319 322 321 319 319 318 318 319 319 320 321 319 317 318 317 318 318 320 323 322 322 323 323
333 330 328 326 326 326 325 324 325 327 326 324 324 323 323 323 322 321 321 319 320 321 321 321 321 321 323 324 325 325 323 322 320 319 320 320 321 321 320 320 320 320 319 319 319 319 319 318 319 320 319 318 318 318 319 319 320 320 320 319 319 317 318 320 320 320 319 318 318 318 319 321 321 319 318 318 318 318 318 319 322 322 322 323 322
328 326 325 325 325 326 325 324 325 327 326 324 324 324 324 324 323 322 322 322 321 322 322 320 320 321 323 323 324 325 322 321 320 320 320 320 320 321 322 321 321 321 320 319 320 320 319 318 318 319 318 318 318 318 318 319 319 319 318 318 318 317 317 317 318 320 319 318 319 318 318 320 321 320 318 318 318 318 318 320 322 322 322 323 322
325 322 322 324 325 324 325 324 325 327 325 323 324 324 324 324 324 323 323 322 322 323 322 320 319 319 320 321 321 321 320 320 321 320 320 319 319 321 324 323 321 322 320 319 319 320 321 318 318 319 318 318 318 318 318 317 318 318 317 317 316 316 316 317 317 319 320 319 319 318 318 319 320 320 318 318 318 318 318 319 322 322 322 322 322
324 321 319 321 322 322 323 325 325 326 324 322 324 324 324 324 324 324 324 323 323 323 322 320 319 318 319 319 319 320 320 321 321 321 321 318 317 320 322 322 322 322 322 321 320 320 319 318 318 318 317 318 317 317 317 316 317 317 317 317 316 316 317 317 317 318 319 319 318 318 317 318 319 320 319 318 318 318 318 319 321 322 322 321 322
325 322 320 319 319 321 323 325 324 325 324 323 324 324 324 324 324 324 324 324 324 323 321 319 318 318 318 316 317 319 320 321 321 321 320 317 317 319 319 319 320 320 322 322 319 318 317 317 318 317 317 317 317 317 316 316 316 317 317 317 316 316 317 317 317 318 319 318 318 317 317 317 318 320 319 319 318 319 319 321 322 321 321 321 322
326 325 323 320 320 322 324 325 324 324 324 324 325 324 324 323 323 324 324 324 323 323 321 319 318 318 318 315 316 319 319 319 319 320 320 317 316 318 318 317 318 317 318 319 317 317 316 317 317 316 316 316 316 316 316 316 316 317 317 316 316 315 315 316 316 317 317 317 317 317 317 317 319 321 320 319 319 320 321 322 322 320 321 322 322
326 325 324 322 322 323 324 325 324 324 323 324 325 324 323 323 322 323 323 322 322 322 321 319 318 318 318 317 317 318 319 318 318 319 319 317 316 318 318 317 318 317 317 317 317 317 316 316 317 316 316 316 316 316 316 316 316 316 316 315 315 315 315 315 316 316 316 317 317 317 317 317 320 322 320 318 320 322 323 322 320 320 321 322 322
326 325 323 323 324 324 325 325 324 323 324 324 324 323 323 323 322 321 321 321 321 321 320 320 319 319 319 318 317 317 319 317 317 318 318 318 317 317 317 317 317 317 317 316 317 317 316 317 316 316 316 316 316 316 316 316 316 316 315 315 315 315 315 315 315 315 316 316 316 317 317 318 321 321 319 320 322 323 322 320 320 321 322 321 321
326 324 322 323 324 325 325 325 323 322 324 324 323 323 323 323 322 321 320 320 321 320 320 320 320 319 318 318 316 316 317 316 316 317 318 318 318 317 317 317 317 317 316 316 317 317 317 317 316 316 316 316 316 316 316 316 316 315 314 314 315 315 315 315 315 315 315 315 316 316 318 320 320 320 320 321 322 321 320 320 321 322 321 321 321
326 323 321 322 324 323 323 324 323 323 323 322 322 323 324 323 322 321 320 320 320 320 320 321 320 319 318 318 317 316 316 316 316 317 317 317 318 318 317 317 317 316 316 317 317 316 317 316 316 316 316 316 316 315 316 315 315 314 314 314 314 315 315 315 314 315 315 315 316 316 317 319 318 319 321 321 320 321 321 321 321 321 320 320 321
325 323 321 323 324 323 323 325 324 324 323 321 322 323 322 323 322 321 321 321 321 319 319 320 320 319 318 318 317 317 317 317 316 317 317 317 318 318 317 316 317 316 317 317 316 316 317 317 316 316 316 316 315 315 315 315 314 314 314 314 314 315 314 314 314 314 314 314 315 315 316 318 318 320 321 320 320 321 320 321 321 320 320 321 321
323 323 323 324 325 324 324 326 325 325 325 323 322 323 322 323 322 322 322 321 321 319 319 321 321 319 318 318 317 317 317 317 317 316 316 317 318 318 317 317 317 316 317 317 316 317 318 317 315 315 315 315 315 315 315 314 314 313 314 314 314 313 313 314 314 315 315 315 315 315 315 316 318 319 318 317 317 317 317 318 320 320 321 321 321
322 322 324 324 323 323 323 325 326 324 324 323 323 323 322 322 322 322 321 320 320 320 321 321 320 319 318 318 317 317 317 317 317 317 316 317 318 317 317 317 317 317 317 316 316 317 318 317 316 315 315 315 315 315 315 314 313 313 314 314 313 313 313 314 315 315 315 315 314 314 314 315 317 317 316 315 315 315 314 315 316 318 321 321 321
322 322 323 323 324 324 323 325 326 324 322 322 323 323 321 320 321 321 321 320 320 321 321 321 319 319 318 317 317 318 317 317 317 316 316 317 318 317 317 317 317 317 317 316 316 317 317 317 317 315 315 315 315 315 314 313 313 313 313 313 312 313 312 313 314 314 314 314 313 313 314 315 316 315 315 314 314 314 314 313 313 316 320 321 320
321 321 322 324 325 324 321 322 325 324 322 322 323 323 322 322 321 321 320 320 320 320 320 320 319 318 318 318 317 318 318 317 316 316 317 317 318 317 317 317 316 316 317 316 316 317 316 317 317 315 315 315 315 315 314 313 313 313 312 312 313 312 311 312 313 313 313 313 313 313 315 316 315 315 314 314 314 314 313 312 311 315 319 320 319
321 320 320 324 325 323 321 320 322 324 322 322 323 323 323 323 322 321 319 320 321 320 319 319 319 318 318 318 317 318 318 317 317 316 317 317 317 317 317 317 316 317 317 316 316 317 316 317 317 315 315 315 315 315 313 313 313 312 312 312 312 312 310 311 312 311 312 313 312 313 315 316 314 314 313 313 313 312 312 312 311 313 317 319 318
322 318 319 324 325 325 324 322 322 323 320 320 324 323 323 322 321 320 319 320 320 320 320 319 319 319 318 318 317 317 317 317 317 316 317 317 317 317 317 316 317 317 317 317 317 316 316 317 316 315 314 315 315 315 313 313 313 312 312 311 312 312 310 310 311 311 311 312 312 312 314 315 314 313 313 312 312 312 312 312 311 312 314 315 315
322 319 321 325 325 326 325 323 323 323 320 320 323 323 322 322 321 320 318 318 320 320 320 319 319 318 318 318 318 318 317 317 317 317 317 317 316 316 316 317 317 317 317 317 317 316 316 317 316 314 314 315 315 315 314 313 313 312 311 311 311 312 311 310 311 311 310 311 312 312 314 315 313 312 313 313 313 313 313 312 312 312 312 312 314
321 321 324 324 324 326 326 324 322 322 321 321 324 323 322 322 321 321 319 318 321 320 319 319 319 318 318 318 318 318 318 318 317 317 317 317 317 317 317 317 317 317 318 317 317 316 317 317 316 314 314 315 315 314 314 313 313 312 311 311 310 311 311 309 310 311 310 311 312 312 314 314 313 313 313 313 313 314 314 313 312 312 312 312 314
321 323 325 323 323 325 326 324 320 322 323 321 323 323 322 322 321 321 320 319 321 320 319 319 319 318 318 318 318 318 317 318 317 317 317 317 317 317 317 317 316 317 317 317 317 316 317 317 316 314 314 315 314 314 314 313 313 312 311 311 310 311 312 309 310 311 310 312 312 312 313 313 313 313 312 313 313 315 315 313 312 312 311 312 313
323 324 325 323 324 325 325 324 321 323 326 322 320 322 321 321 321 321 322 321 321 320 319 319 319 318 318 318 318 318 318 317 317 317 317 317 317 318 317 317 317 317 317 317 317 316 317 317 315 314 315 314 314 314 314 313 312 311 311 311 310 310 311 310 310 311 310 311 312 312 312 312 312 312 311 313 313 315 316 314 312 311 311 312 313
324 325 324 324 326 324 322 324 322 322 327 324 320 321 322 321 322 322 322 322 322 321 320 319 319 318 318 318 318 318 317 317 317 317 318 317 318 318 317 317 317 317 317 317 317 317 317 317 315 314 315 314 314 314 313 312 312 312 311 311 310 310 311 311 309 310 311 311 312 311 312 311 311 311 311 313 314 315 315 313 312 312 312 312 313
324 325 325 325 326 323 321 325 324 323 325 325 322 322 323 323 323 323 322 322 322 322 320 319 318 319 319 319 318 318 318 317 317 317 318 318 318 318 317 317 318 317 317 317 318 317 317 317 315 315 315 314 314 314 313 312 312 312 312 311 310 309 311 310 309 310 310 311 312 311 312 311 311 311 311 313 315 314 314 313 312 312 312 312 312
324 324 325 324 325 325 324 325 326 325 325 324 323 322 323 324 325 325 323 322 322 322 321 320 319 319 319 319 319 319 318 318 318 318 318 318 318 318 317 318 318 317 317 318 318 317 317 317 316 316 315 314 314 314 313 312 312 312 312 312 311 309 309 309 309 310 310 311 312 311 311 311 311 311 311 314 315 313 312 312 312 312 312 313 311
324 324 324 324 326 327 325 324 325 326 325 323 322 322 324 325 325 326 325 322 322 321 321 320 320 320 319 319 319 319 318 318 318 318 318 318 319 318 318 318 318 317 318 318 317 317 317 317 317 316 315 315 314 314 313 312 312 311 312 313 313 311 311 309 308 310 310 311 311 311 311 311 311 310 311 314 315 312 312 312 312 313 313 312 311
324 324 324 324 326 328 327 325 326 325 323 321 323 325 325 325 325 326 325 323 321 321 321 320 320 319 320 319 319 319 319 318 318 318 318 318 318 318 319 318 318 317 318 319 317 317 317 317 317 316 316 315 314 314 313 312 312 311 312 314 313 312 313 310 308 309 310 311 311 311 311 310 310 310 310 314 314 312 312 312 312 313 313 311 309
324 324 324 322 324 327 327 326 326 326 323 320 323 325 324 324 325 325 325 323 320 319 320 320 319 320 320 320 320 320 319 319 319 318 318 318 318 318 319 318 318 318 319 319 317 317 317 317 317 317 316 315 315 314 313 312 312 311 311 313 313 313 313 309 309 311 310 310 311 311 311 311 310 310 310 312 315 313 312 312 312 313 313 310 308
325 325 324 320 321 327 327 326 326 326 325 323 323 324 323 323 324 325 324 322 320 318 319 321 321 322 322 321 321 320 320 320 319 319 319 319 318 319 318 318 318 318 319 319 317 317 317 316 316 316 315 315 315 315 313 312 312 311 310 311 312 313 311 309 310 312 311 310 311 311 311 311 310 310 309 311 315 314 312 312 312 313 312 309 308
327 327 325 321 322 326 327 326 325 325 325 325 324 325 324 322 322 323 321 320 322 322 323 324 324 323 323 322 321 321 320 320 320 320 320 320 319 319 319 318 318 318 319 318 317 317 316 316 315 315 315 315 315 315 313 312 312 312 311 310 310 310 309 309 310 312 313 312 311 311 311 311 310 310 309 310 314 314 312 312 312 313 312 310 309
329 328 327 325 323 324 325 325 326 325 326 325 324 324 324 321 321 322 321 322 324 325 326 326 324 323 323 322 322 322 320 319 320 321 320 320 319 319 319 319 319 318 318 318 318 317 316 316 315 314 314 314 315 315 313 312 313 312 311 310 310 310 309 309 309 311 314 314 312 311 311 311 310 310 310 309 312 314 313 312 313 313 312 311 309
331 330 329 328 326 324 324 325 325 325 326 326 324 323 323 321 321 323 324 325 326 326 326 325 324 324 323 323 323 323 321 319 319 321 321 321 320 320 320 319 319 318 318 318 317 317 316 315 314 313 313 315 315 314 313 312 313 313 312 311 310 309 308 309 309 310 313 313 313 313 311 311 311 310 310 310 311 312 312 312 313 313 313 312 310
332 332 331 330 327 326 326 325 326 325 325 326 324 323 323 320 321 324 325 326 326 325 325 324 324 324 323 323 323 322 323 322 320 320 321 321 321 320 320 319 319 319 318 318 317 317 316 314 313 313 315 316 315 314 313 313 313 313 312 311 310 309 309 310 309 309 311 312 313 313 312 311 311 311 310 310 310 311 312 312 313 313 312 312 311
333 333 332 331 328 327 327 326 326 325 325 326 324 323 323 321 321 324 326 326 326 325 325 325 325 325 324 323 322 322 323 324 323 322 321 321 321 320 320 319 320 320 319 319 317 316 316 313 312 314 316 316 315 314 314 313 313 313 312 311 310 309 309 310 309 310 311 312 313 314 312 310 311 311 310 310 310 310 311 312 313 313 312 312 311
Wind_Speed
14 12 12 9 8 8 7 7 5 4 3 5 7 8 8 7 7 8 8 8 8 9 9 9 8 8 8 9 11 11 9 8 8 8 8 8 8 8 9 9 8 8 8 8 8 8 8 8 8 7 9 9 10 11 11 10 10 10 10 10 10 10 10 10 10 11 11 12 12 13 13 11 9 5 2 1 3 3 1 4 4 6 9 9 9
14 12 11 8 8 7 7 7 5 4 4 6 8 8 8 8 8 7 7 7 7 8 8 8 7 7 8 9 10 10 9 7 6 7 7 8 7 8 8 8 9 8 8 7 7 8 8 8 8 9 9 9 10 11 11 10 10 9 9 9 10 10 10 11 11 11 11 12 13 14 13 10 6 3 4 5 5 2 2 4 5 6 8 8 9
13 12 11 9 8 8 7 6 4 4 6 7 8 8 8 8 7 7 6 6 5 7 8 8 7 7 8 7 9 10 10 9 6 5 6 7 7 8 8 7 8 7 8 8 8 8 8 8 8 9 9 9 10 11 11 10 9 9 9 9 10 11 11 11 11 12 12 14 15 14 13 7 8 7 7 8 6 2 3 5 5 6 8 9 9
12 11 11 9 8 8 7 5 4 6 7 7 7 7 7 7 6 5 5 5 4 5 7 8 7 7 8 7 8 10 10 10 9 6 6 7 7 8 8 8 8 8 9 9 9 9 9 9 9 9 9 9 10 10 10 10 8 8 9 9 10 10 11 11 12 13 14 16 14 13 11 6 9 7 8 8 5 5 5 6 6 7 8 9 10
13 12 11 9 8 8 6 5 6 6 7 7 7 6 7 7 7 6 6 7 7 6 7 7 6 7 8 7 8 10 10 11 11 8 7 7 8 8 9 9 10 10 10 10 11 11 10 9 9 9 9 9 9 8 9 10 8 7 9 9 9 10 12 11 12 14 15 15 12 13 10 6 8 6 6 7 7 7 7 7 8 8 8 9 10
13 12 11 11 10 8 6 6 7 7 7 6 6 6 6 7 7 6 6 7 8 6 7 6 6 7 7 8 8 10 11 12 12 11 9 9 10 10 10 10 11 11 11 11 11 11 10 10 10 9 9 9 8 8 8 8 8 8 9 8 8 11 11 10 11 13 15 14 13 16 10 5 7 6 5 7 9 9 8 8 8 8 9 11 11
13 12 12 12 11 8 6 7 7 7 6 5 5 5 5 5 6 6 5 7 7 5 6 6 6 7 7 8 8 9 11 12 12 12 11 11 11 10 10 10 11 11 11 11 11 10 10 9 9 8 8 8 7 8 7 7 8 8 8 8 8 11 11 9 9 11 13 14 16 17 7 7 8 6 4 7 10 9 8 8 8 9 11 12 12
13 13 13 12 9 7 7 8 7 6 5 5 5 5 4 4 5 6 5 6 8 6 5 6 7 7 7 7 7 9 10 11 11 11 10 10 10 10 10 10 10 10 10 10 9 9 9 8 8 8 7 7 8 8 7 7 8 8 8 9 9 10 11 10 9 10 12 14 17 14 4 10 9 7 5 8 10 8 9 9 11 12 12 13 14
15 13 12 10 7 7 7 8 7 6 6 5 5 5 5 5 5 6 5 6 7 6 6 6 6 6 7 7 7 8 10 10 10 10 9 10 9 9 9 9 9 8 8 8 8 7 7 7 7 8 7 7 8 8 7 8 8 8 9 9 11 11 12 12 9 10 12 13 15 9 8 11 9 7 6 8 8 9 12 13 15 14 14 14 15
16 13 11 8 7 6 6 8 7 6 6 5 5 4 4 5 5 6 5 5 6 5 7 7 6 6 6 6 7 8 9 9 9 9 9 9 8 8 9 8 8 7 7 7 7 7 7 7 7 7 7 6 8 8 8 8 8 9 10 11 11 12 12 12 9 9 10 13 11 8 9 7 7 7 6 7 8 12 16 17 16 15 15 15 15
14 12 10 8 7 5 6 8 6 6 6 5 4 4 4 5 5 6 5 5 6 5 6 7 6 6 5 5 7 8 8 8 8 7 7 8 7 7 8 7 7 7 7 7 7 7 7 7 6 7 7 7 7 8 8 8 8 9 11 12 12 13 12 12 10 8 9 12 9 6 5 5 5 6 6 6 9 14 17 16 16 16 16 15 15
14 12 9 8 7 5 6 7 6 7 5 4 3 4 4 5 5 5 5 5 6 6 5 6 6 6 6 5 7 8 8 8 7 7 7 6 7 6 6 6 6 6 6 7 7 7 7 6 6 7 7 7 7 7 6 6 8 10 11 13 13 12 11 12 10 9 9 11 8 2 0 3 5 5 5 8 11 14 15 17 18 17 16 14 15
14 12 9 8 7 7 8 8 7 6 4 3 4 4 4 4 4 4 5 5 5 5 5 4 4 4 5 6 7 8 9 9 8 7 6 6 6 6 6 6 6 6 6 7 8 8 8 8 8 8 8 8 7 6 5 6 8 10 11 12 12 11 10 11 10 10 11 10 8 3 4 3 4 4 6 10 13 15 17 19 19 17 15 14 14
14 13 10 7 6 8 9 9 8 7 5 4 4 4 4 3 4 4 4 4 4 4 5 5 5 4 4 6 7 7 8 10 10 8 7 7 7 8 8 7 8 9 9 10 10 11 11 11 10 10 9 9 7 6 6 7 9 10 11 10 10 10 10 10 11 11 12 11 10 5 5 3 2 4 9 11 13 16 18 19 18 15 14 13 14
13 12 10 7 5 7 8 8 8 7 6 6 5 5 4 5 6 5 4 3 5 8 9 9 8 7 7 7 7 7 9 10 11 11 11 10 10 11 11 11 11 12 12 12 12 12 12 12 11 11 10 9 9 8 8 9 10 11 11 9 8 9 9 10 11 10 12 12 11 6 4 4 2 4 9 12 14 16 17 19 16 13 13 12 13
11 11 10 7 5 7 7 7 7 7 7 8 7 6 6 7 9 7 5 5 8 11 10 9 8 7 7 6 6 7 9 11 11 10 12 11 11 11 11 11 11 11 11 12 12 12 12 13 12 11 11 12 12 12 12 12 12 12 12 10 8 8 8 10 9 8 11 12 12 8 5 6 4 6 11 13 14 15 17 18 14 13 13 11 12
11 11 9 7 6 7 7 8 7 6 7 8 7 5 6 8 9 9 8 8 10 10 9 8 7 6 5 3 4 6 7 10 11 10 12 12 10 10 10 10 11 11 11 12 13 13 13 14 14 14 15 15 15 16 16 16 15 14 12 10 9 10 9 9 8 7 10 13 13 9 7 9 7 9 12 12 13 15 17 16 12 12 12 11 13
14 12 9 8 8 7 7 9 7 5 5 7 6 4 5 6 7 10 10 10 10 10 9 7 7 6 4 3 3 5 4 5 9 10 12 13 12 11 10 10 11 11 12 13 14 15 15 16 16 15 15 16 16 16 16 16 15 13 11 9 9 10 10 11 10 7 9 12 13 11 9 10 10 10 11 11 13 14 15 14 11 11 11 11 14
15 14 10 9 9 7 8 9 8 5 4 4 5 3 3 4 5 8 9 10 9 9 9 8 9 8 6 5 4 5 4 3 7 9 12 13 13 13 11 11 11 11 11 12 14 14 15 17 18 16 15 14 14 15 17 17 15 12 10 9 9 10 10 11 10 8 8 10 13 13 10 11 12 11 11 11 12 12 14 14 10 10 11 12 14
13 13 11 10 9 8 9 10 8 5 2 2 2 2 2 1 3 5 6 7 8 8 9 8 9 10 8 6 4 5 4 3 6 8 11 13 12 12 12 12 12 11 10 10 13 14 13 15 16 17 15 14 15 17 18 18 16 12 10 9 10 10 10 10 10 9 9 9 11 13 13 12 14 13 11 9 10 12 14 13 10 10 12 14 15
11 10 10 10 9 9 10 10 8 6 3 1 2 2 2 2 1 1 3 3 5 6 7 8 8 8 7 7 6 6 7 5 5 7 10 12 12 12 11 12 13 12 10 10 14 14 13 12 13 16 17 16 17 19 18 17 15 12 9 10 11 11 11 10 11 10 10 10 10 13 15 13 14 14 10 8 10 13 14 13 11 10 13 16 17
11 8 9 9 8 8 9 10 8 7 4 3 4 4 4 4 3 2 1 1 3 3 4 7 7 7 6 7 8 10 11 5 4 7 9 10 11 11 10 11 11 10 9 10 13 13 13 13 13 16 17 16 17 18 18 17 16 13 10 13 15 15 15 16 16 15 12 11 11 13 15 15 16 14 10 9 11 12 14 14 12 12 16 18 19
12 9 10 10 10 9 8 9 8 6 5 4 6 6 5 5 3 3 2 1 2 3 3 5 6 7 5 6 7 9 11 5 4 7 6 9 9 9 12 12 10 9 9 10 12 13 14 15 14 15 16 16 18 18 17 17 16 14 15 17 17 16 17 17 17 16 12 11 12 15 16 17 17 15 12 11 12 12 13 13 13 16 19 20 20
15 12 11 11 12 11 9 9 7 5 4 5 8 7 5 4 2 1 2 2 3 4 3 4 4 6 5 6 6 6 9 7 7 8 5 8 9 9 11 12 11 12 13 12 14 15 14 15 14 14 15 17 18 17 17 17 16 17 18 16 15 16 16 16 14 12 12 13 15 18 19 18 18 16 13 11 12 12 13 14 16 19 20 21 22
16 15 13 14 13 11 12 11 6 5 3 4 8 8 7 4 3 2 3 4 4 5 4 3 3 4 6 8 6 4 6 7 9 10 8 7 9 11 10 10 12 12 14 14 15 15 16 16 15 14 16 18 17 16 17 18 18 18 16 14 15 16 17 17 15 14 14 14 16 20 21 19 17 15 12 11 12 13 15 17 18 20 21 22 24
18 17 16 15 14 12 12 10 6 5 2 2 5 6 5 4 3 3 5 6 5 4 4 3 3 3 6 9 6 5 5 6 8 11 11 8 9 12 9 9 12 11 12 14 14 15 16 16 16 17 18 17 15 15 18 20 20 18 14 15 15 16 16 17 17 16 15 16 17 19 18 13 10 10 10 11 13 15 17 18 18 19 21 23 24
21 19 17 16 16 14 11 8 6 5 4 3 4 3 4 5 3 2 3 3 4 3 4 5 1 2 6 7 6 7 5 5 8 9 12 10 10 12 9 8 10 11 11 12 13 15 16 16 17 20 19 16 13 15 20 21 19 17 16 16 16 16 16 16 16 16 15 17 17 15 13 10 8 8 10 12 14 15 16 18 18 20 22 23 24
22 20 18 16 15 14 11 8 7 6 6 5 5 3 4 6 5 4 3 3 3 3 5 4 1 1 4 5 5 6 5 6 6 8 11 12 14 13 8 8 10 10 10 11 14 16 16 16 19 21 16 13 13 17 22 21 17 17 18 18 17 17 18 17 18 18 18 17 15 14 12 9 9 9 9 11 12 14 15 17 18 20 22 23 23
22 20 18 16 13 13 11 8 8 8 6 5 4 3 5 6 6 6 4 4 4 4 5 3 4 3 2 4 4 5 5 5 4 7 10 12 16 12 8 9 10 10 10 12 14 16 17 16 19 19 15 14 15 19 22 19 18 19 18 17 19 20 20 19 19 19 19 18 17 16 12 9 11 11 9 11 13 15 17 18 19 21 23 23 24
19 18 18 15 12 12 11 8 7 8 7 6 4 3 5 4 5 7 4 4 4 5 5 5 6 3 1 2 4 4 4 4 3 6 9 13 15 10 9 11 11 10 10 11 13 16 16 14 17 18 16 17 18 21 20 17 19 20 18 17 21 23 22 20 18 18 17 16 16 14 10 10 11 11 11 13 16 18 20 20 20 21 22 22 23
16 17 16 13 12 10 9 9 8 8 9 8 5 4 4 3 5 7 4 3 3 4 6 7 7 4 2 3 2 3 3 3 4 6 8 13 13 10 10 11 11 11 10 11 12 15 13 12 15 16 17 18 18 20 18 18 20 20 18 19 22 22 21 19 17 16 15 15 15 14 13 12 12 13 16 18 20 20 21 21 21 22 21 21 23
15 14 14 12 11 9 10 12 11 9 9 7 6 5 4 1 4 6 4 2 2 2 6 8 7 5 4 2 2 2 3 3 5 6 7 12 11 10 11 11 12 12 11 12 11 12 13 14 14 14 15 15 17 20 18 18 20 19 18 20 22 21 20 20 18 16 15 14 14 14 14 13 14 16 19 21 21 21 21 21 22 22 20 21 22
14 13 13 13 11 10 11 13 12 10 8 7 6 5 3 1 4 7 4 2 3 1 5 9 7 7 5 2 2 3 3 4 5 4 6 9 10 11 12 12 13 12 11 10 8 11 14 17 14 12 14 14 16 19 18 19 19 18 19 20 20 19 21 21 20 19 16 15 15 15 14 14 17 19 21 22 21 21 21 22 23 21 20 21 23
14 14 14 14 13 11 11 12 13 11 9 10 8 4 3 1 3 7 3 2 3 2 4 7 7 7 5 2 4 3 3 3 3 2 4 8 8 10 12 12 11 10 12 10 8 11 14 17 14 11 14 14 16 18 18 19 18 19 19 19 18 17 20 21 19 19 18 17 17 17 15 15 19 21 22 22 20 20 20 21 22 20 19 21 23
17 17 16 16 14 13 12 12 13 12 10 11 10 5 3 2 4 5 3 4 4 3 3 5 7 8 6 3 4 2 2 2 4 2 4 8 9 10 11 11 9 9 12 11 10 12 14 17 15 12 14 14 16 17 18 20 18 19 19 18 17 15 19 22 18 18 19 18 17 18 15 15 20 22 20 19 19 19 20 21 21 19 21 23 24
19 18 17 16 14 14 14 13 12 10 9 10 10 8 4 4 5 4 4 5 4 2 3 4 8 9 6 4 3 2 1 3 6 5 4 7 8 8 9 8 8 9 11 11 12 12 14 17 13 12 14 15 16 17 18 19 18 19 18 17 17 14 17 23 19 17 19 18 18 19 16 16 20 21 19 19 19 19 21 22 21 21 24 24 23
19 18 19 17 15 16 15 12 10 9 8 8 9 9 7 6 7 5 5 5 3 3 3 5 9 8 5 4 3 2 2 5 7 6 5 6 5 5 7 7 8 9 9 10 11 12 15 16 11 11 14 14 16 18 18 18 17 19 18 15 17 14 15 23 20 17 20 19 19 19 17 17 20 20 20 20 21 20 21 22 21 22 24 24 23
18 19 20 18 17 16 14 11 10 10 9 9 9 10 9 9 9 7 7 7 4 4 4 6 9 7 4 3 2 1 4 6 7 6 6 5 4 5 6 6 7 9 9 9 10 12 15 15 10 10 13 13 15 17 18 18 17 18 17 14 17 13 13 21 20 17 22 22 22 20 18 18 20 20 21 21 21 19 20 22 22 23 24 23 23
19 20 19 17 17 16 13 11 11 11 10 10 10 10 10 11 11 9 8 9 7 6 5 6 7 6 3 3 3 4 5 6 6 7 7 6 6 5 5 6 7 9 10 9 10 12 15 13 9 9 12 13 13 16 18 17 16 17 16 13 15 13 11 18 19 18 22 23 23 21 18 20 22 22 23 22 19 16 18 21 22 24 24 23 22
20 20 18 17 17 15 13 12 12 12 11 10 10 10 10 11 11 11 11 11 11 9 7 6 6 6 5 4 4 5 6 6 6 8 8 8 8 6 4 5 7 10 11 11 12 12 13 10 8 10 12 13 13 15 17 16 16 16 14 12 13 12 9 15 18 16 20 23 23 22 21 24 25 24 25 22 17 14 16 20 23 24 23 21 22
20 20 19 18 17 15 14 14 13 12 13 12 12 12 11 10 11 12 12 12 13 13 10 9 7 8 6 5 5 4 5 5 5 6 7 8 8 6 4 4 7 11 10 11 11 9 10 8 8 10 11 14 13 14 17 16 15 12 9 7 8 10 7 13 19 14 17 23 22 24 25 25 26 25 26 22 15 15 17 20 24 24 21 20 23
22 21 19 18 17 16 15 15 15 14 14 14 13 13 11 9 9 9 8 7 8 10 11 12 10 9 8 7 5 4 4 4 4 5 5 5 5 5 4 5 9 10 7 10 10 7 9 8 9 11 10 13 13 13 17 15 13 10 7 3 2 5 4 10 18 13 14 21 22 24 26 26 27 26 27 21 14 16 19 21 24 23 20 20 27
22 21 19 17 17 18 16 15 16 15 15 15 13 12 9 8 8 6 5 4 4 6 9 11 11 10 9 9 6 5 6 5 4 5 6 5 3 3 4 6 10 8 7 10 8 7 9 8 11 12 10 12 12 11 14 13 13 13 8 3 1 3 2 6 16 14 13 19 22 25 26 27 28 27 27 19 12 17 21 21 22 21 20 23 30
21 21 19 17 18 19 17 15 15 15 15 15 13 12 9 8 7 6 5 4 4 5 7 10 10 9 9 10 9 8 9 8 7 7 8 6 5 5 5 7 9 7 8 10 7 6 8 8 11 11 10 11 10 9 10 10 13 13 6 2 2 3 1 4 10 11 13 17 21 26 26 28 29 27 27 18 11 19 22 21 22 21 20 25 31
22 21 20 19 18 18 18 16 15 14 13 13 13 13 11 9 7 7 7 6 6 6 8 11 10 8 9 9 9 9 9 8 7 7 7 7 7 7 6 8 8 7 9 9 6 7 7 9 10 10 10 10 9 7 7 7 9 12 8 3 2 2 2 5 6 7 12 15 19 24 24 27 29 26 27 20 11 18 23 21 23 20 20 26 30
22 20 18 18 18 18 17 15 15 14 13 12 12 13 13 12 11 10 9 9 8 8 9 9 9 8 8 8 8 8 9 8 7 9 8 7 9 8 7 8 7 8 10 7 6 7 8 9 8 9 10 9 10 7 5 6 5 8 9 5 2 1 4 6 4 5 8 8 15 24 24 26 29 26 27 24 13 16 23 21 22 21 19 26 31
22 20 16 16 18 18 17 16 15 15 14 12 12 13 14 14 13 12 11 10 8 7 6 7 8 9 9 7 7 8 9 9 9 9 9 9 9 8 6 8 8 8 7 5 7 8 8 8 8 9 9 9 11 7 3 5 3 4 6 4 3 3 5 5 2 4 5 3 9 18 20 24 28 25 26 26 16 14 23 23 22 22 20 24 31
22 20 18 17 18 19 18 17 17 16 15 14 13 14 14 14 13 12 11 10 8 7 7 7 8 10 10 8 9 9 8 9 9 7 7 9 9 7 8 9 8 7 5 6 8 9 9 9 9 10 9 10 11 6 3 5 4 3 4 4 4 6 8 6 4 4 3 4 7 10 14 20 26 26 25 27 19 13 21 25 22 23 22 22 29
21 20 19 18 18 18 18 18 17 16 16 14 14 15 14 14 13 12 11 11 10 10 10 10 9 9 10 10 11 10 7 8 9 9 8 8 8 9 10 9 8 8 8 8 9 9 10 10 10 10 9 10 9 3 4 7 6 4 4 5 5 7 9 8 7 6 3 4 5 6 11 16 21 25 26 26 21 14 18 24 22 23 25 22 27
21 19 18 18 18 18 18 19 18 17 16 15 15 15 14 14 14 14 13 13 12 12 12 11 10 10 11 12 13 12 10 9 10 10 9 9 10 11 11 10 10 10 10 11 11 10 10 10 9 7 7 9 5 2 5 7 6 4 4 6 7 7 6 4 5 6 4 3 3 5 8 10 11 18 25 26 23 16 17 23 22 22 26 23 25
21 19 19 19 19 19 19 19 18 17 16 16 15 16 15 14 15 16 14 14 13 13 12 12 12 13 15 14 13 14 14 12 11 11 11 12 12 11 11 11 11 12 12 12 11 9 10 10 8 6 6 7 4 4 6 7 6 4 3 5 7 6 4 3 6 6 3 3 3 4 6 9 8 11 21 24 23 18 15 21 22 21 26 24 23
Wind_Direction
164 168 162 164 160 150 151 150 151 146 107 87 79 78 80 80 73 66 63 60 63 63 64 63 60 61 56 52 42 32 26 26 28 27 29 31 33 27 21 25 28 19 10 14 16 25 28 24 26 18 14 11 9 9 5 359 356 357 360 359 359 360 357 354 349 345 343 345 351 351 348 347 343 323 272 199 143 129 20 8 16 8 18 12 355
161 164 161 158 156 153 151 148 153 133 102 91 84 85 82 78 75 68 64 62 65 61 59 55 51 49 43 49 33 20 22 22 24 22 29 31 28 21 18 21 19 16 16 21 26 34 32 25 23 17 13 7 1 1 2 357 353 355 356 358 357 355 350 347 345 343 343 346 352 352 352 2 29 80 146 144 146 139 2 13 18 5 11 1 347
155 157 155 153 162 158 147 144 150 124 102 93 90 89 81 77 71 66 63 58 63 60 55 49 47 42 38 46 25 19 23 20 30 32 35 31 23 24 24 19 14 17 18 23 28 33 31 23 15 11 7 360 357 358 1 359 357 360 358 355 348 345 344 343 342 343 343 348 351 351 357 35 85 105 128 131 132 86 28 27 19 4 4 355 346
152 152 152 160 164 148 145 148 142 120 106 98 96 91 79 72 61 53 50 39 53 66 51 41 46 44 40 43 23 25 27 29 43 44 39 29 24 31 31 24 21 23 20 23 22 23 23 17 10 4 1 355 353 355 0 358 355 359 2 353 344 342 343 342 341 344 344 347 349 351 3 68 102 102 123 121 102 67 49 31 16 5 0 352 349
151 152 156 156 144 140 148 146 135 119 111 106 99 90 78 66 53 49 50 46 58 66 48 42 49 45 41 40 27 32 33 39 52 55 51 36 34 37 34 26 21 17 12 13 12 12 12 6 3 358 358 354 351 353 356 2 3 355 356 353 353 350 342 341 340 342 344 347 350 358 13 94 113 103 113 105 83 63 45 24 13 4 358 353 349
152 154 156 146 142 154 154 141 135 125 119 111 97 84 75 63 51 52 56 46 53 59 47 45 51 45 39 39 33 37 38 40 47 49 47 37 35 31 26 20 12 6 0 359 357 358 358 354 354 352 354 353 353 352 348 359 2 353 352 346 346 345 338 336 335 342 345 345 355 359 13 120 133 113 101 86 69 52 38 21 12 4 2 359 352
153 154 152 149 156 165 150 141 137 131 126 111 92 77 71 64 52 50 55 39 41 52 44 40 49 48 39 41 35 39 41 37 37 38 36 30 27 19 15 10 2 356 351 349 347 348 348 349 351 353 356 357 357 355 353 349 346 346 347 337 332 334 333 335 332 343 344 346 1 0 14 148 148 112 86 71 61 44 34 22 15 11 7 1 352
153 157 157 157 159 155 145 145 141 136 127 112 93 72 64 65 52 45 52 39 40 49 44 39 46 46 39 43 38 39 40 34 31 29 25 21 16 10 6 359 355 350 349 349 350 352 352 356 358 1 1 3 1 354 355 344 339 335 334 330 325 326 330 335 333 339 341 353 8 7 66 145 139 107 87 70 60 43 35 24 17 12 4 356 349
156 160 159 156 147 145 147 148 142 134 120 107 94 69 63 66 54 45 52 40 40 50 50 43 42 42 41 46 42 38 36 29 23 20 14 11 8 5 2 358 358 357 359 1 0 2 2 4 2 2 1 2 359 351 346 338 336 329 328 327 324 326 328 332 331 335 343 3 18 39 104 131 125 107 92 69 60 40 29 20 16 9 358 352 348
160 161 159 149 137 142 144 143 136 125 117 107 89 66 62 68 58 46 54 46 41 48 47 44 45 45 47 48 36 29 24 19 14 12 10 7 9 7 6 5 6 5 4 4 5 6 5 4 0 0 357 355 353 346 342 341 343 335 330 327 326 327 328 332 332 337 351 11 32 88 106 113 109 92 80 67 53 21 12 14 15 6 356 350 345
163 163 159 142 131 126 137 142 134 126 121 111 85 70 68 66 56 48 58 53 47 49 45 44 51 53 55 46 27 21 13 12 12 11 11 11 13 10 8 8 7 5 4 3 3 1 359 358 353 354 351 346 343 339 347 356 359 351 336 327 328 326 329 335 337 348 0 17 44 114 105 93 76 56 58 50 32 11 5 11 11 3 354 345 342
166 167 160 142 126 111 122 122 123 136 124 105 83 76 76 64 57 53 60 57 51 51 48 48 56 61 60 47 30 27 22 23 24 19 17 14 12 8 5 6 4 1 1 359 359 0 0 1 355 350 345 341 342 347 1 9 6 357 341 328 326 326 333 335 338 0 4 16 42 95 72 54 42 42 42 23 15 7 4 4 2 360 352 342 340
171 174 168 148 122 106 105 94 108 133 134 114 93 87 84 70 63 59 63 65 59 52 51 56 63 65 60 53 42 35 36 39 36 27 22 15 8 6 4 4 6 6 9 12 19 24 22 19 13 4 356 354 356 3 6 3 2 358 348 337 334 336 339 337 344 3 1 6 23 347 284 334 37 35 12 9 6 1 358 356 357 357 350 339 335
178 182 177 162 127 112 105 94 102 113 120 118 111 106 94 70 57 56 64 63 62 64 67 73 73 68 68 64 53 41 42 44 41 36 36 32 22 22 26 29 33 34 37 40 41 37 31 26 23 20 15 12 8 0 352 350 353 356 357 353 348 349 346 340 348 359 353 353 7 351 266 292 4 353 357 2 358 356 354 354 355 354 347 336 331
180 186 183 181 145 128 120 103 103 107 103 103 117 116 93 66 53 55 57 52 74 83 82 81 77 76 77 70 58 47 42 45 45 40 39 40 36 37 41 44 45 42 41 42 40 33 26 23 21 21 14 8 3 351 343 338 339 345 352 358 356 355 354 344 347 358 348 342 355 350 250 262 296 328 348 348 348 352 353 354 353 350 343 333 329
185 192 191 194 166 145 144 128 117 114 96 91 110 110 87 71 63 63 59 69 89 87 83 81 80 78 73 65 55 45 39 39 42 37 30 32 33 35 38 40 39 32 29 25 22 20 15 13 10 4 358 352 347 342 339 334 329 329 332 341 345 342 346 342 343 352 344 336 340 338 269 263 269 301 326 334 343 350 352 353 351 344 338 330 327
193 199 201 201 179 155 158 157 143 122 91 82 99 104 80 76 72 67 68 85 92 81 74 75 74 72 58 42 25 25 32 31 32 33 20 17 21 22 22 24 25 21 17 14 9 7 5 4 2 355 350 347 343 340 338 336 333 329 325 325 331 334 331 327 331 331 333 332 329 324 286 273 271 295 318 334 342 347 351 351 346 340 335 327 325
197 204 203 200 191 173 168 169 164 135 92 80 96 104 73 75 78 74 78 89 90 70 63 61 51 53 31 336 309 341 2 13 20 26 18 12 10 8 8 6 11 16 12 13 11 7 4 1 1 359 354 353 351 346 341 341 338 334 326 317 324 336 328 316 316 311 316 327 324 316 292 277 276 296 319 333 340 346 349 345 340 337 330 324 324
199 203 195 188 187 181 181 178 174 155 103 92 101 106 82 74 83 88 85 87 92 71 59 52 40 39 14 330 297 310 313 343 6 13 16 11 2 359 4 3 358 6 12 13 13 10 8 4 2 2 0 359 356 349 343 339 334 330 329 322 323 333 331 319 312 301 303 323 324 317 302 284 278 291 311 325 339 346 344 340 336 332 323 321 323
188 190 185 180 178 179 189 187 179 178 147 112 117 130 134 92 76 100 94 85 92 76 57 50 45 37 18 351 326 310 306 341 354 1 14 10 3 353 349 355 352 355 6 9 8 6 5 5 1 359 356 350 349 349 344 340 328 320 326 330 327 324 322 318 312 297 291 309 317 317 312 294 282 284 299 322 342 344 340 337 334 329 322 320 320
181 183 183 181 178 177 185 189 185 188 191 221 223 220 207 217 319 80 119 98 89 84 64 55 48 34 26 23 20 4 345 335 343 359 11 10 9 359 338 339 348 352 360 7 8 3 358 0 359 357 354 347 349 352 352 352 341 326 327 336 332 321 313 308 305 298 291 294 298 309 313 302 287 280 292 328 343 341 339 337 334 328 321 319 317
184 183 189 191 181 176 180 183 182 188 203 256 243 251 252 229 276 314 205 141 99 111 74 57 45 26 25 32 26 18 13 350 340 354 3 13 8 9 5 352 356 355 348 356 4 5 3 2 1 357 357 353 351 353 356 359 356 350 342 334 326 316 312 307 303 300 297 295 292 305 312 307 293 278 288 325 336 338 339 335 331 325 320 318 319
181 178 186 190 185 182 184 180 177 186 201 240 247 262 263 245 270 296 249 177 142 159 85 60 50 35 24 21 7 12 26 25 3 2 5 21 10 12 19 10 16 14 357 357 4 12 11 4 0 358 358 356 354 360 0 353 355 355 344 337 333 327 321 317 314 306 298 299 307 314 315 309 295 277 282 314 325 330 335 328 321 322 320 320 323
185 187 180 173 181 189 189 186 191 196 204 241 247 257 260 246 240 246 214 177 163 161 107 69 69 48 25 9 351 359 27 30 25 28 25 24 19 16 11 10 27 26 19 18 15 17 11 360 1 1 357 356 359 4 359 349 347 344 344 353 358 354 349 344 338 323 304 304 315 318 313 307 296 280 282 309 320 323 325 317 316 322 322 323 324
193 194 186 174 180 187 183 185 199 206 213 245 240 245 247 224 173 143 129 138 148 148 131 94 76 47 25 14 360 357 22 30 31 32 27 19 22 21 10 15 30 23 18 20 15 12 5 1 8 10 357 355 360 0 357 353 348 342 349 7 4 358 1 358 354 344 327 319 321 320 317 310 293 281 288 310 316 316 318 317 320 323 323 324 323
198 197 193 186 187 185 176 179 195 206 218 244 221 223 222 198 174 144 117 123 140 139 144 133 72 34 26 18 24 33 28 28 24 23 22 22 23 20 14 20 28 17 8 14 11 4 6 10 13 8 355 352 355 352 353 353 350 354 3 9 359 350 352 354 354 353 346 342 339 333 331 325 303 293 305 315 313 312 316 321 324 325 324 326 324
196 195 189 186 188 184 178 181 196 215 232 235 217 205 195 195 193 165 140 143 163 156 146 140 92 33 27 20 36 35 28 22 18 18 18 24 20 14 25 31 23 15 5 12 12 6 11 16 7 358 350 348 351 350 355 358 3 13 14 6 356 347 347 353 355 351 346 350 353 352 352 349 337 322 314 315 315 319 325 326 327 327 326 327 325
193 192 185 180 181 180 183 189 196 211 226 220 218 229 207 209 212 191 197 214 210 204 160 150 232 278 12 21 43 34 32 23 18 14 8 13 10 9 36 35 19 20 13 13 14 10 13 14 3 355 350 349 354 359 2 11 22 20 13 6 1 358 356 355 352 347 341 342 348 351 350 347 345 340 331 334 343 347 345 338 333 331 330 328 326
190 189 182 174 171 175 183 187 192 201 219 213 202 228 208 207 213 201 213 233 223 204 174 195 255 258 348 32 53 50 47 28 16 11 3 4 8 15 37 30 25 28 20 14 11 9 11 9 1 358 2 3 3 4 6 17 23 15 9 4 3 4 1 354 349 344 338 335 339 342 343 345 352 359 4 6 7 2 354 345 339 336 333 329 325
176 176 173 169 163 169 179 178 188 205 222 221 207 221 220 214 201 197 214 222 203 188 192 235 246 247 340 81 62 56 51 24 359 7 7 2 10 33 44 35 35 28 19 12 6 10 12 3 3 8 11 11 9 6 9 16 14 10 7 4 3 2 358 355 350 345 342 345 355 2 7 11 16 20 16 7 2 358 352 347 342 338 334 329 327
161 165 170 172 171 177 190 186 191 209 216 218 205 202 229 229 182 185 204 199 178 191 210 239 236 225 171 120 75 61 48 20 3 9 8 5 20 52 44 37 34 25 16 6 5 15 13 354 1 12 11 10 8 7 13 14 10 11 10 6 5 4 4 5 2 1 4 9 18 24 23 26 27 20 11 5 2 358 352 347 341 336 333 330 329
166 172 175 179 187 201 210 199 196 206 210 208 196 204 235 221 177 187 198 193 182 209 226 237 226 195 168 118 89 98 66 28 17 19 10 13 35 48 32 28 22 16 7 356 360 12 8 356 357 4 8 9 3 6 14 14 13 14 10 6 7 14 23 25 24 26 28 28 28 26 24 25 21 13 10 6 2 357 351 344 337 334 333 330 330
182 184 184 187 196 203 204 202 202 206 212 209 195 207 224 133 190 196 192 186 188 262 239 227 212 182 169 115 126 137 81 42 28 32 10 12 29 27 19 18 12 9 4 355 355 360 1 4 1 358 6 5 0 8 15 13 17 15 8 6 12 24 31 33 34 35 37 37 34 30 29 29 21 15 10 4 359 354 347 341 336 334 334 331 331
197 189 188 191 194 192 190 198 204 208 220 221 209 210 226 230 195 186 176 177 191 277 253 219 207 188 178 143 157 156 91 49 29 39 356 353 355 0 3 4 9 14 13 11 5 357 359 5 4 0 6 4 4 16 17 13 16 13 8 9 16 28 32 32 35 37 38 39 37 32 30 28 20 14 8 3 357 352 347 346 343 339 339 335 332
200 192 192 191 190 191 188 193 201 207 214 216 212 210 224 210 175 174 202 217 208 269 279 229 209 193 186 165 162 156 96 32 3 357 338 337 329 335 344 355 12 19 15 16 8 360 358 2 5 6 7 5 11 21 18 14 15 11 9 12 17 25 30 29 32 36 34 34 33 27 28 27 17 12 7 3 358 355 354 353 350 347 345 339 335
198 194 191 186 185 188 187 186 191 198 203 207 207 210 212 197 193 200 224 223 210 247 278 221 196 190 189 169 156 158 69 355 347 346 331 330 324 326 338 354 17 14 7 7 5 1 355 357 6 12 7 9 15 16 13 14 14 11 9 11 14 19 28 27 30 35 31 30 27 21 26 22 13 10 4 0 357 354 355 352 350 349 345 341 339
200 195 186 182 183 183 185 190 192 194 199 199 200 211 216 213 222 227 221 223 221 227 235 195 186 185 182 164 145 149 0 345 344 345 332 331 336 339 347 1 13 5 358 0 1 357 351 352 6 19 14 14 15 11 11 13 10 9 8 11 13 17 29 23 25 35 29 27 23 18 22 16 7 7 2 358 353 349 351 350 349 346 343 342 342
198 193 187 188 187 185 189 198 198 194 201 206 205 213 212 212 228 238 233 238 241 233 221 194 189 187 175 167 171 282 320 334 346 347 330 323 331 342 358 13 15 1 350 355 1 357 352 351 6 25 22 17 14 12 11 8 5 7 9 12 12 16 31 21 22 36 28 24 21 17 18 12 5 4 2 359 354 349 348 346 346 345 342 342 342
193 190 191 193 190 192 196 196 198 198 205 217 217 214 207 209 225 240 245 247 249 250 230 202 193 195 203 219 260 296 310 324 334 330 317 305 310 322 353 13 13 358 341 338 346 350 352 358 17 25 19 16 14 11 6 3 5 8 9 14 12 15 29 18 20 34 27 21 20 18 15 10 8 7 5 2 358 353 346 343 346 346 343 343 344
189 189 192 194 191 193 195 191 197 203 206 215 217 213 210 217 234 248 255 255 254 256 236 210 205 211 225 250 274 305 323 327 324 317 309 298 297 304 338 2 4 350 338 335 334 340 352 9 28 18 12 13 11 8 4 2 6 9 10 13 15 17 20 12 17 30 24 18 19 16 13 10 9 10 6 3 2 358 348 346 348 348 346 346 347
186 190 191 193 193 193 193 192 196 204 208 213 214 216 224 235 251 257 261 266 262 258 237 218 222 224 232 263 280 315 330 329 326 317 314 303 292 291 318 346 349 339 334 340 338 341 357 10 17 11 11 9 7 8 4 2 5 7 5 6 14 21 18 6 12 23 17 15 17 13 11 9 9 9 6 4 5 1 354 350 350 350 349 348 350
185 189 191 193 196 195 196 197 200 206 213 220 222 223 232 245 254 252 250 258 251 244 231 220 226 232 243 266 276 300 298 296 322 320 320 319 297 283 301 335 343 338 332 340 343 350 356 356 360 3 9 5 3 8 6 6 7 358 341 335 2 17 17 3 8 15 10 10 14 11 9 7 6 7 6 7 9 5 359 353 352 353 352 351 353
185 189 192 193 195 196 197 200 203 208 216 223 224 222 234 248 246 233 218 206 184 196 212 218 229 239 253 264 262 281 281 277 300 305 307 323 319 286 300 337 341 339 334 338 343 350 349 351 355 356 2 1 359 7 10 11 9 359 344 329 330 350 324 349 0 3 3 5 9 10 8 5 4 6 8 9 10 7 2 356 355 355 355 355 355
185 187 191 193 195 197 199 201 205 214 220 221 221 225 241 250 239 228 223 213 187 184 200 215 232 245 258 261 259 276 281 275 277 284 298 309 314 302 303 328 334 334 329 330 339 347 350 353 353 353 356 356 352 4 17 15 14 14 3 311 330 9 352 331 345 348 354 0 4 7 6 3 3 4 7 8 8 9 4 359 359 356 357 359 358
188 191 196 197 198 200 201 204 207 215 221 221 224 231 240 241 231 231 237 234 230 227 222 227 240 253 265 264 263 269 267 266 267 273 293 300 299 297 293 315 329 332 322 316 325 336 343 348 348 348 351 354 344 350 18 21 24 30 30 12 348 13 334 324 329 332 342 351 358 2 3 2 1 1 4 4 2 7 6 2 1 359 359 2 2
192 195 199 199 198 199 201 207 211 214 220 223 225 229 235 239 239 244 248 243 240 239 240 247 259 268 270 267 264 255 246 253 266 274 285 283 286 287 287 310 321 320 315 305 312 324 333 341 344 345 346 350 339 331 7 16 25 34 37 54 52 271 290 319 336 324 326 341 352 356 359 0 360 359 1 2 356 1 6 6 2 2 2 3 4
197 197 198 197 197 200 203 209 214 216 221 224 224 227 236 242 244 248 248 242 240 241 252 272 278 269 262 264 269 260 251 255 264 281 284 271 273 279 289 305 303 306 309 299 310 321 330 335 337 337 334 339 338 325 338 351 348 25 35 51 27 328 311 320 327 315 312 320 338 346 353 357 358 359 359 0 355 352 3 6 3 2 1 1 4
198 196 197 199 199 202 205 210 213 217 221 226 228 231 239 242 239 243 240 237 249 256 263 278 274 258 253 269 285 283 272 258 259 279 278 262 263 269 285 293 286 291 302 304 314 319 323 325 325 327 323 330 336 323 319 339 331 352 20 22 2 348 351 354 347 328 304 308 322 332 342 348 355 359 359 359 353 344 359 3 2 2 357 353 1
197 197 200 202 203 204 206 208 212 216 220 225 230 233 241 241 231 236 242 244 257 262 264 272 268 253 253 271 285 288 283 263 261 271 267 260 265 271 281 281 275 283 296 304 313 316 320 324 325 328 331 334 335 319 328 342 337 336 356 4 355 351 0 3 351 340 301 291 317 323 333 342 351 355 356 358 355 344 353 359 0 2 357 350 357
198 200 204 205 206 207 208 210 212 215 220 225 230 233 240 238 228 233 245 249 254 257 258 260 260 259 259 268 277 279 279 272 264 265 267 271 277 281 281 275 276 287 296 301 306 314 320 323 324 327 340 341 332 316 337 343 343 335 345 1 358 352 1 354 334 341 323 270 294 308 318 329 336 344 348 353 355 347 347 356 359 1 359 353 355
197 201 204 206 207 210 210 211 214 216 220 225 230 234 238 239 231 230 241 248 250 253 255 256 261 266 263 264 276 278 276 272 260 258 266 275 282 286 282 274 278 286 292 298 302 311 319 320 318 317 332 340 319 305 327 340 346 335 333 358 356 351 356 331 317 330 321 264 300 306 304 318 311 321 338 345 352 351 346 354 1 3 1 356 356